Voltar ao catálogo

FENGYUN 1C DEB

AtivoSSO
NORAD 31260·DEBRIS·🇨🇳 China

Lançado May 10, 1999 de Taiyuan Satellite Launch Center

Loading…

Próximas Passagens (próximas 24 horas)

TLE

AtualizadoSource: Space-Track

Época: Sep 12, 2026, 06:04 UTC

1 31260U 99025BMS 26255.25286691  .00001318  00000-0  44914-3 0  9994
2 31260  98.9409 168.1310 0044922 205.8755 307.6481 14.37684700 11186

Acompanhe FENGYUN 1C DEB em tempo real com AllMySat

Download on the App Store